Wind_Speed
3 4 4 5 6 6 6 6 6 6 6 6 6 6 6 6 6 6 5 5 5 5 5 5 6 6 6 6 6 6 6 7 7 7 7 7 6 6 6 6 6 7 7 7 9 9 9 8 8 9 9 10 10 11 11 11 11 11 12 13 13 14 14 15 15 15 15 15 15 15 16 16 17 17 17 18 18 18 18 18 18 18 19 19 19
4 4 3 5 5 5 6 6 6 6 6 6 6 6 6 6 6 6 6 5 5 5 5 6 6 6 6 6 7 7 7 7 7 7 7 7 7 7 7 7 7 7 7 8 9 9 10 9 9 10 10 10 11 12 12 12 12 12 12 13 14 14 15 15 16 15 15 16 15 15 15 16 16 16 17 18 18 18 19 19 19 19 20 20 19
4 4 4 4 6 6 6 6 6 6 6 6 6 7 7 7 8 9 9 8 7 6 7 7 7 8 8 8 8 7 7 7 7 7 7 8 7 7 8 8 7 7 8 8 9 9 10 10 10 11 11 11 12 13 13 13 13 13 13 14 14 14 15 16 16 16 16 16 16 17 16 17 17 17 17 18 18 18 19 19 19 19 20 20 20
4 4 5 6 6 7 6 6 6 6 6 6 7 7 8 8 9 9 9 8 8 8 8 8 9 8 9 9 8 8 8 8 8 8 7 7 8 8 8 9 9 9 9 9 10 10 11 11 11 11 12 12 13 14 14 14 14 14 14 15 15 15 16 16 17 17 17 17 17 17 18 18 19 19 19 19 19 18 19 19 19 19 19 20 20
6 6 7 7 7 7 6 6 7 6 6 7 7 8 8 8 8 8 8 8 8 8 8 9 9 9 9 8 9 9 9 9 9 8 9 9 9 10 10 11 11 11 10 11 12 12 13 13 13 13 14 14 14 15 15 16 16 16 16 16 16 16 17 17 17 17 18 18 18 18 19 19 20 20 20 20 20 19 20 19 19 21 21 21 20
7 7 8 8 7 7 7 7 6 5 6 7 7 7 7 7 8 8 8 9 9 9 9 9 9 8 8 8 8 9 9 10 9 9 10 10 10 11 12 13 14 14 13 13 14 15 15 16 16 16 16 16 16 17 17 17 18 18 18 18 18 18 18 18 18 18 18 19 19 20 21 21 21 21 20 20 20 20 21 20 20 21 21 22 22
8 8 8 8 8 7 7 7 6 6 7 7 7 7 7 7 8 8 9 9 9 9 9 8 7 7 7 7 7 7 8 9 10 10 10 11 12 13 13 14 15 16 16 15 15 16 16 18 18 19 19 20 20 20 20 20 20 20 20 20 20 20 20 20 20 20 20 20 21 21 21 22 22 22 20 19 19 20 20 21 21 21 21 22 23
10 9 9 9 8 8 8 7 7 7 7 7 7 7 7 8 8 9 9 9 9 9 8 9 9 9 8 8 8 7 7 8 10 10 10 11 12 13 13 14 15 16 18 17 17 17 17 18 18 19 20 21 22 22 22 23 23 22 23 22 23 23 23 23 22 22 21 22 22 23 23 23 23 22 21 20 20 20 20 20 21 22 22 22 22
11 10 10 9 9 9 8 8 8 7 7 7 7 7 8 8 9 9 9 9 9 8 9 10 10 10 10 11 11 10 8 8 10 10 10 12 14 14 13 14 17 18 18 17 17 18 18 18 18 17 18 20 20 21 22 22 23 23 24 24 25 25 25 25 24 24 24 24 24 24 24 24 24 24 23 21 21 20 20 20 20 21 21 23 23
11 11 10 10 9 8 8 7 6 6 7 7 7 7 8 8 9 9 9 8 8 8 10 11 11 11 11 13 14 12 11 8 10 10 9 13 14 14 14 17 19 17 15 15 15 16 18 18 18 16 15 18 18 19 20 19 19 20 21 22 23 24 25 26 26 26 26 26 26 25 26 26 25 25 25 24 22 21 20 20 20 21 21 21 22
10 10 10 9 7 6 6 5 5 6 7 7 7 7 8 9 10 10 9 9 9 9 12 14 15 16 17 18 17 14 12 11 11 11 9 11 12 12 14 16 16 13 11 13 14 15 16 16 16 14 11 14 17 18 18 16 15 15 17 18 20 22 23 24 24 26 27 28 28 28 27 27 26 26 26 25 24 22 21 20 20 20 20 19 20
8 8 8 7 6 6 5 5 5 6 7 7 7 8 9 10 10 10 10 9 8 10 14 18 19 21 23 25 21 14 11 9 9 10 8 8 10 11 11 11 11 12 10 10 12 14 15 12 11 13 10 10 15 18 19 17 14 13 14 17 19 20 20 20 20 23 26 27 29 30 30 29 28 27 26 25 24 23 22 21 21 20 21 20 20
5 6 7 7 7 7 5 5 5 6 6 5 6 8 8 9 9 10 10 9 8 11 15 18 20 23 26 27 21 13 10 7 5 5 6 8 9 10 10 9 10 12 12 11 8 10 13 13 12 14 13 10 13 16 18 17 15 14 16 18 19 19 17 15 17 20 23 24 26 27 29 30 30 29 27 26 25 24 23 22 21 21 21 22 22
5 5 6 7 7 6 6 5 5 5 5 5 5 7 8 8 9 9 11 11 11 13 15 18 21 24 26 26 20 10 6 5 4 5 6 7 8 8 7 7 8 9 11 13 10 9 11 13 16 17 18 17 17 17 17 17 15 16 17 18 18 17 15 13 17 19 20 21 22 24 26 28 29 29 28 28 27 25 24 23 22 22 22 23 23
5 5 6 6 6 5 3 3 3 4 5 5 6 8 8 9 10 10 11 12 13 14 17 19 22 24 26 25 19 9 6 7 7 9 8 8 9 8 7 5 5 6 10 13 13 14 12 15 18 19 21 21 22 21 18 16 16 16 17 17 17 16 16 17 19 19 19 19 20 21 23 25 26 26 27 27 27 26 25 25 24 24 24 24 24
5 5 5 5 6 5 4 4 4 4 6 6 7 9 9 9 10 11 11 12 14 16 18 21 22 24 25 22 17 12 10 11 10 12 11 12 12 11 12 10 8 10 13 15 16 17 18 19 20 21 23 22 21 19 16 16 16 16 17 17 17 18 19 22 22 20 20 19 19 19 20 21 23 23 24 25 25 25 25 25 25 25 25 25 26
5 5 6 7 7 8 7 7 7 7 8 9 9 10 9 10 11 13 13 15 17 18 20 21 22 22 23 20 16 15 13 14 14 14 14 14 13 13 15 14 13 16 18 19 20 21 22 23 23 24 25 24 21 19 18 18 16 15 15 16 18 20 21 22 23 23 21 20 20 19 18 19 20 20 21 22 23 23 24 24 25 25 26 26 27
6 7 7 8 8 9 9 10 10 10 10 9 9 10 10 10 12 14 15 17 19 20 20 20 20 20 20 19 17 16 15 15 16 16 16 13 13 14 16 16 16 19 23 24 25 25 25 25 25 25 24 23 22 20 19 17 15 15 16 17 20 22 22 22 22 23 24 23 22 21 19 17 18 20 20 20 22 24 24 24 24 24 24 25 26
7 7 8 8 9 10 10 10 11 11 10 9 10 10 11 12 13 15 17 20 20 19 18 17 18 19 19 19 18 18 16 15 13 13 12 11 13 15 17 18 19 20 24 25 26 26 26 25 23 23 22 21 21 20 18 17 17 18 19 20 22 23 23 23 23 23 24 25 24 23 21 18 17 19 20 20 19 21 23 23 22 22 22 23 24
7 8 9 10 11 12 12 12 11 11 10 10 10 11 12 14 15 16 19 20 18 16 16 17 19 20 21 20 20 20 18 15 14 13 11 10 13 16 18 19 20 21 24 26 26 26 24 23 21 21 21 21 21 21 20 20 20 21 21 23 24 24 24 24 23 23 23 23 24 24 23 21 19 18 19 20 17 16 18 19 18 19 21 21 23
11 12 12 13 14 14 14 13 11 10 10 10 10 12 13 15 16 18 19 17 15 15 16 19 20 22 22 21 21 20 17 15 16 15 14 12 12 15 18 20 21 21 23 23 23 21 21 21 21 21 21 22 22 23 23 23 23 23 24 25 26 26 25 24 23 22 21 21 21 21 23 23 21 19 18 18 18 16 15 16 16 16 20 22 22
15 16 17 17 18 18 16 12 10 9 8 9 10 12 14 16 17 18 17 14 13 15 17 20 22 23 24 23 22 20 16 16 16 16 16 15 15 16 18 19 20 19 19 19 19 18 19 19 20 20 20 21 22 23 24 24 24 24 25 26 27 26 25 24 23 22 21 20 19 19 20 22 22 21 19 17 18 19 17 16 15 15 18 21 21
18 20 21 22 21 19 14 11 9 8 8 8 10 12 14 16 17 16 14 13 14 16 18 21 22 24 25 24 22 18 15 15 16 17 17 16 16 16 17 17 18 18 18 19 19 19 20 20 20 20 20 19 20 20 21 21 21 20 21 22 23 24 24 23 23 22 21 21 19 18 18 20 21 21 20 19 19 20 20 18 17 16 17 21 20
21 23 23 22 20 16 12 9 8 7 8 8 10 12 13 15 15 13 12 13 14 17 19 21 23 25 25 23 20 17 16 16 17 17 16 16 16 16 16 17 18 18 19 20 21 21 21 21 21 20 20 20 20 19 19 19 18 17 17 18 19 20 21 21 23 23 23 22 21 19 18 18 19 20 20 21 22 22 22 20 19 18 18 22 22
22 22 22 20 17 14 11 7 6 7 8 8 9 10 11 12 12 11 12 13 15 18 20 22 24 26 25 21 18 17 16 17 18 17 16 16 16 16 17 18 19 20 21 21 22 22 22 22 22 21 21 20 20 20 19 18 18 17 16 17 18 19 19 19 21 22 23 24 23 21 20 19 19 19 19 20 22 23 24 21 19 19 20 24 25
21 21 20 17 14 12 11 8 6 6 7 7 8 9 10 10 10 11 12 14 16 19 21 23 25 26 23 19 18 17 18 19 18 17 17 17 17 17 18 19 20 21 23 23 23 23 23 22 21 21 21 20 20 20 19 18 18 18 17 17 18 19 18 19 20 21 22 23 24 23 22 21 20 20 19 20 21 22 23 22 19 18 19 24 27
20 19 17 14 13 13 11 10 7 4 5 7 8 9 9 9 10 11 13 15 18 20 23 25 25 23 20 18 19 20 20 20 18 17 17 17 17 18 19 20 21 23 24 24 23 22 21 20 20 20 21 21 21 21 19 18 18 18 18 18 18 19 18 19 19 20 20 21 23 24 23 23 22 22 21 20 21 21 22 22 19 17 17 19 21
17 17 16 15 14 13 12 11 9 5 5 6 8 8 8 8 10 11 13 15 18 22 24 24 23 21 20 20 21 21 20 19 18 17 17 17 17 18 19 21 23 24 24 23 23 21 20 19 19 20 21 21 21 21 20 19 18 17 18 18 18 18 17 17 17 17 18 19 20 21 22 24 24 25 24 23 22 21 22 23 22 19 16 16 16
16 17 16 16 15 13 12 11 10 9 7 6 6 7 8 9 10 12 14 16 19 22 23 22 21 21 21 21 20 20 19 18 18 17 17 17 18 19 20 22 23 24 23 22 22 21 20 20 20 21 21 21 20 21 21 19 18 16 16 17 17 15 15 14 14 14 15 16 17 18 18 20 22 24 26 27 27 25 23 23 23 21 18 17 17
17 17 17 16 15 13 11 10 10 11 10 8 6 7 9 10 11 12 14 17 20 22 22 22 22 22 21 20 19 18 17 18 18 18 18 18 18 20 21 23 23 23 23 22 23 23 21 21 22 23 23 21 20 21 22 20 18 17 16 15 14 12 12 12 12 11 12 13 14 15 15 16 18 20 22 24 26 27 26 24 24 23 20 19 21
17 17 17 17 15 13 12 10 9 10 10 9 8 8 9 10 11 12 15 18 20 22 22 22 23 22 20 19 19 17 16 17 18 18 18 18 19 21 22 23 22 23 23 24 25 25 24 22 23 25 25 23 20 21 23 20 18 17 16 14 11 9 9 10 11 11 12 12 13 14 14 14 15 16 16 18 21 23 25 25 24 24 22 21 22
17 17 17 16 15 14 13 11 9 9 10 9 8 8 9 10 11 13 16 18 20 22 22 23 22 20 19 19 18 16 16 17 17 18 18 19 20 21 22 22 23 23 25 27 27 28 26 22 23 24 25 25 23 24 25 19 16 16 15 12 9 8 9 10 11 12 13 13 14 14 14 15 14 14 15 15 16 17 21 22 22 23 24 23 21
17 17 17 16 16 15 14 12 9 8 8 8 8 8 9 10 12 14 17 18 20 22 22 22 20 19 18 18 18 17 17 17 17 18 18 19 20 22 22 23 24 24 26 28 29 30 27 22 23 23 24 25 26 29 27 18 13 14 13 10 10 11 11 11 12 13 14 15 16 15 15 16 16 15 15 15 16 15 16 19 21 23 23 23 21
18 18 17 16 15 15 14 12 9 6 7 7 7 9 10 11 13 15 16 19 21 22 21 21 18 17 17 17 18 18 18 17 16 17 18 19 20 22 23 24 25 26 27 29 30 31 27 23 23 23 23 24 27 29 25 16 13 12 11 11 12 13 14 13 14 15 16 17 17 17 17 17 17 17 16 16 17 17 17 17 20 22 21 21 21
19 18 18 16 15 15 14 12 9 6 6 7 7 9 11 12 13 15 17 20 21 21 20 19 17 16 16 16 18 18 17 17 17 18 19 20 21 22 24 25 26 27 28 29 30 30 27 25 24 23 23 24 26 26 20 15 13 11 13 14 16 17 16 15 15 16 17 18 19 18 18 18 18 18 18 18 18 19 19 19 19 20 20 21 21
20 18 18 16 15 15 14 13 10 8 7 7 8 9 11 12 14 16 18 20 20 20 20 18 15 15 15 16 18 17 17 17 18 19 19 20 21 23 25 26 26 27 28 30 30 28 27 26 24 23 23 24 25 22 16 14 11 13 15 17 20 20 20 19 18 17 17 16 17 16 16 16 16 17 19 19 18 18 19 21 21 20 20 21 23
20 18 17 16 15 15 15 13 11 10 8 7 8 9 11 12 14 16 18 20 19 19 19 16 13 14 14 15 17 17 18 18 18 19 19 20 22 24 26 26 26 28 29 30 29 28 28 26 24 23 22 23 23 19 15 13 13 15 17 20 22 23 23 23 20 18 17 15 15 14 13 11 11 13 15 17 19 18 17 19 20 21 21 21 22
20 17 16 16 15 15 14 13 12 11 9 8 8 9 11 13 15 17 18 19 19 19 17 14 13 13 13 15 17 18 19 19 18 18 18 20 23 25 26 27 27 29 31 31 29 27 27 25 24 23 22 20 19 18 15 14 14 15 17 21 24 27 28 25 20 17 16 15 14 12 10 10 10 11 11 12 15 17 17 17 17 19 20 21 21
19 16 15 15 14 14 14 13 12 11 10 9 8 10 12 13 15 16 17 18 18 17 15 13 12 12 13 15 17 19 19 18 18 18 19 21 24 26 27 28 29 30 32 32 29 27 26 25 24 22 21 19 17 16 15 13 13 14 16 19 25 31 30 26 21 18 16 15 14 12 11 11 9 7 8 7 8 11 14 15 15 16 17 18 18
19 15 14 14 13 14 14 13 13 12 11 9 9 10 11 13 14 16 18 18 18 15 13 12 11 11 13 16 18 19 19 18 17 18 20 23 25 27 28 29 30 30 32 32 28 25 24 25 25 22 21 19 18 17 15 11 10 11 14 17 23 29 30 27 25 24 22 18 16 13 10 9 6 5 6 5 5 4 8 10 12 14 14 15 15
18 15 13 13 13 13 13 14 14 13 12 11 11 12 13 14 16 18 19 18 16 12 11 11 10 11 13 16 18 19 19 18 18 19 21 24 26 28 30 31 31 31 31 30 27 23 22 24 25 23 21 19 20 20 18 16 13 10 11 14 18 23 29 30 30 32 29 24 21 17 14 12 9 8 7 6 8 6 3 3 7 9 11 12 13
17 14 11 12 12 12 13 14 14 13 14 14 15 15 16 17 17 18 19 17 14 11 10 10 10 10 12 16 18 19 19 19 18 20 22 25 27 29 31 32 32 32 31 29 27 22 20 23 24 23 22 18 19 22 21 21 21 16 13 14 17 19 26 32 33 35 35 31 28 25 23 20 17 17 15 12 12 11 10 5 2 2 5 9 10
16 14 11 11 11 12 13 13 14 14 15 16 16 17 17 17 17 18 17 14 12 10 9 8 7 9 12 15 17 19 20 19 19 20 22 25 27 30 32 32 32 32 30 28 28 24 19 21 22 22 22 19 19 23 24 23 23 22 18 16 18 17 21 30 34 35 37 36 33 32 32 29 26 25 21 19 19 19 19 13 7 6 3 1 4
15 14 11 10 11 11 12 13 14 14 15 16 16 16 16 16 16 16 15 12 9 7 5 4 5 9 12 15 17 19 20 19 19 21 23 25 28 30 32 33 33 32 30 28 29 26 20 19 20 20 21 20 20 21 21 21 21 23 19 14 15 15 16 23 29 34 37 37 36 36 37 36 34 32 28 27 30 31 30 23 16 13 12 10 7
14 13 10 10 10 10 11 12 13 14 15 15 15 15 15 14 15 15 14 11 8 5 4 5 7 10 14 16 17 19 19 19 20 21 23 25 28 30 32 33 33 31 30 29 29 28 23 19 17 17 19 19 19 19 18 19 19 19 18 14 12 13 15 18 22 28 35 37 37 36 36 37 38 39 37 36 36 37 39 35 28 25 24 24 20
13 12 10 9 10 10 11 12 13 14 14 15 15 15 14 15 16 16 15 13 10 8 7 8 9 12 14 16 17 18 18 18 20 21 23 25 28 30 32 33 33 32 31 29 28 29 27 22 18 17 17 16 17 19 18 17 16 18 18 17 13 12 16 20 19 20 28 34 36 37 37 36 38 41 42 41 40 40 42 42 38 35 34 33 31
12 11 10 9 9 9 10 11 12 13 14 15 15 15 16 16 17 17 17 14 11 9 8 7 8 11 13 14 16 17 17 18 20 21 23 25 27 29 31 32 33 34 32 31 30 29 28 25 23 21 19 17 16 19 20 17 16 16 17 17 16 16 18 22 21 17 20 28 34 37 38 36 37 41 42 42 42 41 41 43 42 39 38 37 35
11 11 10 9 9 9 9 10 11 13 13 14 15 15 16 16 17 17 16 14 10 8 6 4 6 9 11 13 15 16 16 18 20 21 23 25 26 28 30 32 35 36 36 35 33 31 29 26 25 24 22 19 19 20 21 20 18 16 15 17 17 18 18 20 22 19 18 22 28 33 36 36 35 38 41 41 42 42 41 42 41 39 39 38 37
10 10 9 8 8 8 9 10 11 12 13 14 14 15 15 16 17 17 15 13 9 6 3 3 6 8 10 12 14 15 16 18 19 21 22 24 25 27 28 31 35 37 38 38 37 35 34 32 29 26 23 20 20 20 21 23 22 19 18 19 17 16 17 19 21 23 23 22 24 28 32 35 36 37 39 38 38 41 42 41 40 39 39 38 36
9 9 9 8 8 8 8 9 10 11 12 13 14 14 15 15 16 16 15 12 8 5 3 4 6 8 9 11 13 15 15 18 19 20 22 22 23 25 27 30 33 35 36 37 38 38 38 38 37 34 28 23 20 21 22 22 22 22 22 21 19 17 18 19 20 23 25 24 23 26 28 32 34 37 40 38 35 38 41 42 41 39 38 37 34
8 8 8 7 7 7 7 8 9 10 12 13 13 14 15 15 15 15 14 12 9 6 4 5 7 8 9 11 13 14 15 18 19 19 21 20 21 23 26 27 29 31 32 33 34 35 36 37 38 39 37 30 23 21 22 22 21 22 23 22 23 23 23 23 22 23 24 24 24 25 26 28 30 32 36 38 37 36 37 41 42 40 37 36 33
Wind_Direction
83 70 59 56 48 44 42 43 40 37 33 30 28 23 17 10 9 8 11 11 7 5 5 6 6 6 2 359 356 352 349 348 344 343 339 335 334 329 326 322 320 319 315 311 312 313 313 313 310 306 302 298 297 296 293 289 286 284 281 278 275 274 274 274 272 271 270 268 266 264 265 264 264 262 261 260 259 258 255 254 252 251 251 253 254
72 70 61 59 57 60 54 50 44 38 31 26 27 23 22 23 22 25 32 35 28 19 16 16 14 12 7 7 4 359 352 350 345 343 339 333 331 325 323 317 314 314 309 306 305 307 307 307 305 300 297 295 293 292 289 286 285 283 281 279 277 275 274 275 276 274 273 273 273 270 268 266 263 261 260 259 258 258 257 256 256 256 256 255 255
63 73 73 74 75 72 62 54 47 37 28 26 32 32 37 37 34 34 37 39 35 27 23 21 19 17 14 13 9 4 355 350 345 342 338 332 328 322 318 313 310 308 303 301 300 299 300 299 298 296 293 291 290 289 287 285 284 281 279 277 276 276 274 275 276 275 274 274 274 274 273 270 268 265 262 260 258 256 254 253 252 253 255 256 254
75 80 83 85 83 78 67 58 47 37 30 31 38 39 40 36 32 29 26 25 23 19 15 13 11 9 6 5 358 352 346 341 336 333 331 324 317 310 305 303 301 297 295 295 295 294 293 293 292 290 288 287 286 286 285 283 281 279 276 274 273 272 272 272 273 274 273 272 271 272 271 271 270 268 265 263 262 260 258 255 252 250 249 252 252
91 86 83 84 80 72 64 56 46 38 35 36 39 37 34 27 22 18 13 10 8 6 3 1 358 356 354 350 344 340 337 334 329 326 325 320 312 305 300 297 294 290 288 289 289 290 290 290 289 287 285 283 282 282 282 281 279 278 275 273 273 271 270 269 269 270 270 269 269 268 267 267 266 265 265 264 263 262 262 260 256 252 249 248 248
84 81 76 77 74 64 56 51 48 46 44 40 36 31 26 18 12 7 1 358 357 355 355 353 347 346 344 342 338 334 335 332 331 329 323 320 314 308 304 299 295 290 286 285 285 285 285 284 284 283 282 281 279 277 277 278 278 278 277 275 274 272 270 269 268 267 267 267 265 265 265 265 265 265 264 265 264 261 262 262 259 256 253 252 250
74 73 70 70 68 64 59 57 57 52 45 38 30 19 12 8 2 355 351 351 350 351 348 339 331 329 329 331 324 324 332 327 326 326 321 318 315 310 308 304 298 294 290 288 287 286 285 283 281 280 279 277 276 274 273 274 275 276 276 276 274 272 271 269 268 266 265 266 264 263 263 263 265 265 264 266 265 262 261 261 261 260 258 256 255
71 70 69 69 66 64 63 63 57 47 38 29 17 6 359 355 352 349 349 350 349 348 337 320 316 315 315 311 303 306 315 319 319 314 317 318 314 316 315 314 309 304 301 298 298 297 293 289 286 283 281 278 276 275 273 272 272 272 272 273 274 272 271 269 267 265 263 263 263 263 263 262 262 263 262 262 263 263 262 261 262 262 261 259 257
75 74 70 66 65 63 60 55 49 38 25 16 7 359 353 351 350 350 351 351 348 338 317 308 312 314 314 309 304 301 296 312 318 314 327 322 314 318 316 316 317 315 314 316 316 310 306 301 296 294 292 286 281 278 275 275 273 272 272 271 271 272 271 269 267 264 263 262 262 262 262 263 263 262 260 259 260 261 262 261 261 261 262 261 257
77 72 64 59 56 56 53 45 36 23 12 9 7 0 359 358 354 357 355 350 346 329 310 308 314 317 317 316 313 303 287 288 301 304 327 326 317 325 325 320 319 321 326 330 327 320 319 316 311 308 309 304 298 291 281 277 277 276 274 273 272 271 270 269 268 266 264 263 262 261 261 262 263 262 260 259 258 259 259 259 258 259 261 262 258
75 70 63 58 48 49 47 41 28 19 19 13 9 3 2 360 357 358 351 353 355 335 322 324 329 328 325 327 323 310 293 278 287 296 314 329 324 327 329 324 321 323 329 330 325 324 324 317 315 311 314 316 310 306 294 284 284 284 280 277 274 270 269 270 270 269 267 264 263 261 261 261 261 262 262 262 261 261 258 256 256 257 257 258 256
74 68 61 50 39 45 39 38 39 43 45 24 10 3 360 357 355 353 348 358 358 333 329 331 333 332 329 330 329 328 326 305 303 311 317 320 320 326 331 329 326 323 315 316 318 317 316 303 301 303 302 317 315 312 306 293 285 293 293 284 279 273 269 272 275 274 270 267 265 263 261 261 260 261 261 263 263 262 260 256 255 254 254 251 249
65 50 44 37 35 45 48 56 60 60 53 34 18 5 360 352 347 348 344 349 345 330 330 329 328 328 326 329 333 347 1 344 319 313 313 296 307 336 341 332 324 323 305 294 302 312 318 299 282 290 287 292 311 317 316 306 292 299 305 292 285 278 274 279 282 278 273 269 266 264 262 261 260 261 261 261 261 260 260 258 255 254 254 253 250
52 41 38 34 31 43 55 65 64 50 32 28 19 356 351 343 339 343 337 336 335 326 325 324 325 323 323 329 336 352 358 323 284 273 299 305 318 333 325 323 321 324 300 283 279 287 317 305 283 284 284 280 290 303 313 316 303 298 302 294 286 280 278 280 275 272 272 270 269 267 263 261 260 261 262 262 261 260 259 258 256 253 253 255 253
45 45 37 22 17 22 29 25 22 20 2 4 1 346 340 337 340 342 336 335 331 323 323 323 323 322 323 330 336 341 324 304 294 291 304 311 316 305 278 289 308 299 282 278 273 272 289 295 288 285 285 285 285 295 307 309 303 295 291 286 281 277 271 266 263 266 270 271 271 271 268 263 260 261 262 263 263 262 260 258 257 254 254 254 255
46 37 15 358 355 344 335 334 333 335 326 329 337 338 337 337 336 334 334 332 326 324 324 322 322 322 323 330 336 334 322 311 308 305 308 304 299 286 272 271 282 283 277 280 280 280 283 285 291 290 287 292 293 297 300 295 298 295 286 279 277 274 268 264 264 267 269 269 271 272 273 268 260 258 259 261 261 261 260 259 258 256 254 254 254
32 9 353 347 345 340 334 331 329 327 321 318 319 324 330 332 329 329 333 329 325 324 322 321 321 322 324 330 337 335 324 312 305 298 297 300 294 280 275 274 277 284 284 288 293 295 294 289 290 292 292 297 297 291 286 286 292 289 282 279 276 273 270 271 270 271 271 269 268 268 272 272 265 259 258 260 260 260 260 260 260 258 255 253 253
13 356 349 344 340 339 337 334 332 331 327 320 316 316 320 321 324 328 329 325 323 323 321 322 321 325 330 333 336 337 330 316 308 299 292 293 291 281 277 277 277 282 287 292 298 301 301 298 294 294 295 298 296 290 286 285 284 280 276 276 276 274 274 275 274 273 272 269 267 266 267 270 266 261 259 261 263 262 262 262 262 261 259 255 253
7 352 347 342 339 338 334 332 329 329 327 320 316 314 313 313 318 320 321 321 320 321 323 325 327 332 336 337 338 338 338 332 324 316 304 288 283 284 283 284 286 287 292 297 302 304 304 303 299 298 297 295 294 291 287 282 279 278 277 275 274 275 275 277 277 275 273 270 268 264 263 265 264 261 257 257 263 266 265 266 266 265 263 259 257
358 349 343 341 342 339 332 328 322 321 319 316 313 310 309 310 314 316 318 319 320 324 329 332 336 339 339 339 341 343 345 349 348 343 333 305 286 290 293 297 300 299 300 304 307 308 308 307 306 302 297 294 291 288 284 279 277 276 276 276 275 275 275 277 278 277 274 272 269 264 260 261 260 259 257 255 257 267 270 269 270 272 268 262 260
345 342 339 338 337 335 330 324 316 313 312 312 311 309 311 314 317 319 321 324 328 334 336 338 341 342 340 340 344 348 351 356 352 347 343 330 310 304 306 308 310 309 308 311 314 315 314 314 313 309 304 297 292 288 285 282 280 278 276 277 276 276 276 276 277 277 276 273 271 265 258 256 256 254 256 257 256 261 269 270 272 278 275 265 259
339 337 337 337 336 334 330 320 308 304 306 308 308 309 313 316 318 322 327 332 338 341 339 341 343 343 341 342 347 351 355 355 349 347 344 338 329 319 317 316 317 319 322 328 332 331 329 326 324 320 314 307 299 294 290 288 285 282 279 279 279 278 277 276 276 276 275 274 273 270 261 256 256 254 254 258 258 258 262 269 272 277 279 267 259
337 338 337 336 334 332 329 317 303 293 295 303 306 308 310 313 318 325 331 337 341 342 341 341 342 343 343 345 350 355 357 354 350 348 345 340 334 328 326 327 331 336 341 344 344 343 341 338 336 331 326 319 313 307 302 300 296 291 287 284 282 280 278 277 275 274 273 272 271 271 267 261 260 259 259 259 258 258 261 268 271 275 277 266 261
339 337 333 331 330 331 332 319 304 295 290 296 302 308 312 316 324 330 336 340 340 339 338 338 340 343 346 349 355 358 356 353 351 348 344 341 339 339 341 344 347 348 349 348 346 345 343 340 338 333 327 323 320 317 313 311 309 307 301 295 290 285 283 280 276 274 272 270 270 270 268 266 265 263 263 262 261 261 262 267 271 274 273 264 263
334 331 330 331 334 339 341 328 314 313 307 307 309 313 318 324 332 340 344 342 339 337 336 337 341 345 349 353 356 356 354 353 352 350 349 350 351 353 356 357 355 352 350 348 346 345 342 340 337 331 325 321 320 319 317 315 312 310 306 302 298 294 292 288 282 278 274 271 269 269 268 266 266 263 263 263 263 263 263 267 271 272 271 265 264
328 331 336 341 346 350 353 348 336 332 328 327 326 323 325 331 339 348 347 343 341 339 337 340 345 347 350 353 354 355 356 357 357 357 358 359 1 3 2 359 356 352 349 347 347 345 343 340 337 332 329 328 326 323 320 316 311 307 303 300 297 296 296 293 290 285 280 274 270 269 268 266 265 264 263 261 261 262 263 266 268 269 270 265 264
333 338 346 353 356 359 2 2 357 347 341 343 343 338 338 342 345 348 345 344 344 340 341 345 347 349 352 354 356 360 1 2 3 3 3 4 6 6 2 358 354 353 350 348 347 347 345 342 339 337 337 340 338 332 326 318 311 305 301 297 295 295 294 293 292 290 285 281 276 271 270 268 267 266 264 262 260 260 260 264 267 267 268 265 264
341 347 356 2 4 5 7 11 12 2 352 354 356 354 351 350 348 346 345 345 343 342 346 348 350 354 358 359 359 2 5 5 6 7 7 7 8 6 0 356 353 352 351 349 348 348 346 343 342 341 343 346 344 341 336 328 319 309 304 299 297 296 293 292 292 292 289 285 282 277 274 271 269 268 266 264 263 261 258 260 265 266 264 262 258
351 358 3 7 9 9 10 14 15 10 6 2 360 0 355 352 348 344 345 345 343 345 349 352 357 1 3 2 1 5 8 8 9 10 9 8 8 3 358 355 352 351 351 349 347 347 345 344 343 342 344 344 343 345 345 339 331 321 313 305 302 300 296 297 297 295 291 286 284 281 278 275 273 271 268 265 262 261 259 258 261 263 261 258 253
359 1 4 10 11 10 11 13 13 10 12 11 3 360 352 346 345 344 344 343 343 348 353 358 2 5 4 1 3 10 11 9 10 10 10 10 6 1 356 354 352 350 350 349 348 349 347 345 345 347 348 348 347 348 345 342 338 332 326 320 313 309 306 306 303 297 294 290 289 287 285 284 282 279 274 268 263 260 259 257 256 257 256 257 256
2 1 5 11 12 10 11 11 8 5 8 11 4 356 347 342 342 342 341 341 345 350 356 1 4 6 3 1 9 15 12 9 10 10 11 9 4 359 355 352 351 349 348 349 348 348 347 347 350 353 353 353 353 348 343 341 340 338 335 335 334 329 321 313 306 303 305 303 299 294 287 284 281 280 278 273 268 261 257 255 252 253 254 255 255
4 3 6 11 14 12 12 11 6 357 358 3 0 354 344 341 341 338 339 342 348 353 357 1 4 5 2 6 14 15 11 10 9 10 9 6 2 358 354 351 350 349 349 348 345 344 346 350 352 354 355 353 351 348 347 347 345 341 341 347 357 352 339 328 320 315 314 312 308 301 291 281 274 271 269 268 268 264 258 255 254 255 257 257 254
6 5 4 11 15 12 12 13 9 351 346 356 355 348 341 339 339 337 339 343 349 354 357 1 4 4 5 10 15 13 11 10 8 7 6 4 0 356 353 352 352 352 351 347 345 345 349 355 356 356 357 354 350 349 349 353 352 348 352 6 13 3 351 341 331 323 317 313 310 306 298 286 276 268 262 259 259 260 257 255 255 254 254 256 253
8 5 4 11 14 11 13 16 16 354 340 347 342 338 337 338 338 337 340 346 351 353 358 5 5 6 9 12 14 13 11 8 6 5 5 3 358 355 354 354 355 353 351 347 347 348 351 1 2 358 359 357 351 349 352 2 5 4 15 26 18 5 356 344 332 324 317 312 309 307 303 294 284 275 268 260 255 254 253 250 251 252 251 251 252
9 7 5 12 13 11 16 20 22 9 345 338 335 336 336 336 336 337 342 346 349 353 2 8 6 8 13 14 14 13 11 8 6 6 5 2 357 355 355 355 355 353 351 348 349 351 356 6 6 1 1 359 352 352 2 13 16 29 38 34 24 12 2 349 336 327 320 315 312 307 301 294 288 281 276 270 262 256 253 249 249 250 250 249 252
8 7 6 13 14 12 17 21 24 19 4 347 340 336 333 333 334 339 342 345 348 356 5 7 5 12 16 16 15 13 10 8 6 6 5 0 357 357 357 358 356 353 351 350 352 356 2 8 8 8 5 358 354 1 17 24 32 51 48 37 27 17 6 356 349 342 335 328 324 319 312 302 293 284 277 274 271 264 257 252 249 248 248 248 252
6 5 8 14 15 15 16 19 22 20 13 358 343 332 331 334 336 340 341 344 351 359 3 3 8 19 20 18 16 12 9 8 7 7 5 0 360 1 2 1 357 355 354 354 357 2 8 9 8 12 8 359 1 12 27 39 54 58 50 40 29 22 16 9 5 2 357 352 348 344 339 332 317 301 285 273 269 265 260 256 252 248 246 247 250
2 2 9 15 16 17 16 18 20 18 12 360 346 334 334 337 338 340 340 347 356 359 1 7 20 26 22 19 16 12 10 9 9 10 7 4 5 5 5 3 360 358 358 360 2 5 10 10 8 12 9 7 13 20 32 49 59 59 52 44 33 28 24 18 15 15 12 8 9 7 357 348 338 332 324 295 273 263 258 256 253 251 248 249 252
359 360 9 15 17 18 17 20 20 17 10 358 350 341 338 339 338 339 344 354 359 360 8 24 34 29 22 20 17 16 15 13 15 15 12 10 9 8 6 5 2 1 1 3 5 6 8 10 14 14 12 22 30 28 37 48 53 60 58 47 37 31 28 24 23 27 29 27 26 21 2 346 339 351 7 350 309 278 263 257 254 254 253 252 253
355 358 8 14 16 18 18 21 19 17 12 3 355 348 345 345 345 347 354 2 1 4 23 36 37 28 21 21 21 21 20 19 21 19 16 13 11 9 7 6 4 3 2 4 6 8 10 13 19 16 13 31 42 39 41 40 46 68 65 52 40 31 29 32 36 40 44 43 38 30 18 15 15 25 26 27 27 327 284 269 261 256 256 255 252
351 355 6 13 15 18 19 20 19 17 14 10 5 360 359 357 356 356 360 3 3 12 35 43 35 23 21 24 25 24 22 22 23 21 19 16 13 10 8 7 5 4 3 3 6 12 16 17 21 18 15 31 42 40 39 36 42 58 59 51 45 35 30 36 43 44 47 49 49 48 47 44 41 54 57 63 77 65 28 307 278 263 259 257 251
348 353 4 13 14 17 20 20 18 16 15 11 8 6 6 3 359 358 1 3 5 22 42 44 31 18 23 27 27 26 23 23 23 22 21 18 15 12 9 8 5 4 5 5 7 16 22 21 22 18 18 32 40 36 32 30 29 28 32 35 39 39 32 36 43 44 45 49 53 56 58 57 56 69 82 85 84 84 82 74 341 282 261 259 244
344 351 3 15 14 16 20 20 17 17 16 11 8 9 7 3 358 359 5 7 11 32 49 46 23 13 26 30 27 26 24 23 24 25 23 20 17 13 10 9 6 4 8 10 10 18 28 27 26 22 23 35 38 32 27 25 21 18 23 23 22 27 29 34 40 43 46 50 56 56 56 61 62 68 81 86 84 83 88 94 93 102 127 246 220
340 348 1 16 14 15 20 20 18 18 17 12 10 10 7 1 358 3 12 15 21 42 63 50 13 14 30 31 27 27 24 23 25 28 26 23 19 15 12 10 8 8 12 15 13 18 29 31 30 29 29 33 33 28 22 24 23 18 21 19 13 18 24 32 37 43 49 53 57 55 52 57 62 66 72 75 77 76 79 92 102 102 102 94 100
336 343 358 17 14 14 21 20 17 18 18 15 13 11 8 3 5 11 17 25 36 60 71 40 14 19 30 29 27 27 24 23 27 31 30 26 21 18 15 13 13 16 19 20 18 19 26 31 30 29 28 28 27 25 22 26 27 24 30 31 20 22 30 38 40 44 50 53 55 55 52 50 54 58 61 63 67 66 70 83 95 96 93 90 90
332 340 357 18 15 13 20 20 16 17 18 17 13 11 10 9 13 16 18 24 39 56 55 35 15 19 27 27 26 27 25 25 30 35 33 28 25 22 20 20 23 26 24 24 24 23 26 33 33 28 28 25 22 26 28 33 37 40 47 47 42 43 44 45 46 44 48 52 54 56 53 47 46 50 53 55 57 59 65 75 84 89 89 88 88
328 340 358 14 15 12 18 20 15 15 18 17 14 11 12 13 17 19 20 26 40 55 56 36 12 15 24 26 27 28 26 27 33 39 37 32 30 28 29 32 35 35 33 31 32 32 33 38 38 33 31 31 31 35 37 41 50 52 53 54 56 61 54 48 48 46 45 49 54 57 57 52 47 47 49 50 50 55 62 69 75 82 84 84 85
324 339 358 8 13 12 15 19 14 13 17 18 14 13 14 16 20 22 23 28 42 57 58 27 4 12 22 27 30 31 29 30 37 43 42 36 36 37 39 43 44 44 43 41 40 39 39 40 41 39 39 43 47 48 45 46 52 54 51 54 59 63 63 57 55 55 49 46 50 56 59 59 55 50 49 48 48 51 56 62 70 75 79 83 83
318 337 354 3 11 11 13 16 13 13 17 18 16 14 16 18 21 25 26 27 36 48 40 357 357 9 19 28 33 34 33 34 42 49 46 42 44 46 47 48 50 50 49 49 48 46 45 43 42 41 41 45 48 49 50 50 49 49 49 54 60 64 66 66 65 63 59 49 43 45 50 55 57 55 54 50 47 50 52 56 64 69 74 80 82
312 333 348 359 8 9 12 11 9 13 18 18 17 16 18 20 21 25 26 26 31 32 357 339 356 6 17 31 36 37 38 39 47 54 51 49 52 52 52 52 52 52 52 51 51 50 50 48 45 43 41 40 43 47 51 52 50 51 52 52 54 55 57 61 66 66 64 59 51 46 46 48 50 52 55 54 49 51 53 54 59 64 67 71 77
306 328 341 353 2 6 11 8 7 13 17 18 17 17 20 22 23 25 23 24 29 20 357 359 7 10 23 35 39 41 41 42 51 58 56 56 59 57 55 53 52 51 50 49 49 49 49 48 47 46 44 44 47 52 54 54 53 55 56 54 55 58 58 58 62 65 62 58 53 51 50 51 51 49 52 56 55 55 56 56 57 60 62 63 69
Height
1511 1510 1510 1510 1510 1510 1510 1510 1510 1510 1510 1510 1510 1509 1509 1509 1508 1508 1507 1507 1506 1506 1505 1504 1503 1503 1502 1501 1501 1500 1499 1499 1498 1497 1497 1496 1495 1495 1494 1494 1493 1493 1492 1491 1490 1489 1488 1488 1487 1487 1486 1485 1485 1484 1483 1483 1482 1482 1482 1481 1481 1481 1481 1481 1480 1480 1480 1480 1480 1479 1479 1479 1479 1479 1479 1479 1479 1479 1479 1479 1479 1480 1479 1479 1479
1511 1511 1511 1510 1511 1511 1511 1511 1511 1511 1511 1511 1510 1510 1509 1509 1509 1508 1508 1507 1507 1506 1505 1504 1504 1503 1502 1501 1501 1500 1500 1499 1498 1497 1497 1496 1495 1495 1494 1493 1493 1492 1491 1491 1490 1489 1488 1487 1486 1486 1485 1484 1483 1483 1482 1481 1481 1481 1481 1480 1480 1480 1480 1479 1479 1479 1479 1478 1478 1478 1478 1477 1477 1477 1477 1477 1477 1478 1478 1478 1478 1478 1478 1478 1478
1511 1511 1511 1511 1511 1511 1511 1511 1511 1511 1511 1511 1511 1511 1510 1510 1509 1509 1508 1508 1507 1507 1506 1505 1504 1503 1502 1502 1501 1501 1500 1499 1498 1497 1497 1496 1495 1494 1494 1493 1492 1492 1491 1490 1489 1488 1487 1486 1485 1485 1484 1483 1482 1482 1481 1480 1480 1480 1479 1479 1479 1478 1478 1478 1478 1477 1477 1477 1477 1476 1476 1476 1475 1475 1475 1475 1476 1476 1476 1476 1476 1477 1477 1477 1477
1512 1512 1512 1512 1512 1512 1512 1512 1512 1512 1512 1512 1512 1511 1511 1510 1510 1509 1509 1508 1508 1507 1506 1505 1504 1503 1503 1502 1501 1500 1500 1499 1498 1497 1497 1496 1495 1494 1493 1493 1492 1491 1490 1489 1488 1487 1486 1485 1484 1483 1482 1482 1481 1480 1479 1479 1478 1478 1478 1477 1477 1477 1477 1476 1476 1476 1476 1475 1475 1475 1474 1474 1473 1474 1474 1474 1474 1474 1474 1474 1474 1475 1475 1475 1476
1512 1512 1513 1513 1513 1512 1512 1512 1512 1513 1513 1512 1512 1512 1511 1511 1510 1510 1509 1509 1508 1507 1506 1505 1504 1503 1503 1502 1501 1500 1499 1498 1498 1497 1496 1495 1495 1494 1493 1492 1491 1490 1489 1488 1487 1486 1485 1484 1483 1482 1481 1481 1480 1479 1478 1478 1477 1477 1476 1476 1476 1475 1475 1474 1474 1474 1474 1474 1473 1473 1472 1472 1472 1472 1472 1472 1472 1472 1472 1472 1472 1473 1473 1473 1473
1513 1513 1513 1513 1513 1512 1512 1512 1513 1513 1513 1513 1513 1512 1512 1511 1511 1510 1510 1509 1508 1507 1506 1505 1504 1503 1502 1501 1501 1500 1499 1498 1497 1497 1496 1495 1494 1493 1492 1491 1490 1489 1488 1487 1486 1485 1484 1483 1482 1481 1480 1480 1479 1478 1477 1476 1476 1475 1475 1474 1474 1474 1473 1473 1472 1472 1472 1472 1471 1471 1470 1470 1469 1469 1470 1470 1470 1470 1470 1470 1470 1471 1471 1471 1471
1514 1514 1513 1513 1513 1513 1513 1513 1513 1514 1513 1513 1513 1513 1512 1511 1511 1510 1510 1509 1508 1507 1506 1505 1504 1503 1502 1501 1500 1499 1499 1498 1497 1496 1495 1494 1493 1492 1491 1490 1489 1488 1487 1486 1485 1484 1483 1482 1481 1480 1479 1478 1477 1477 1476 1475 1474 1474 1473 1473 1472 1472 1471 1471 1470 1470 1470 1469 1469 1468 1468 1468 1467 1467 1468 1468 1468 1468 1468 1468 1468 1468 1469 1469 1469
1514 1514 1514 1513 1513 1513 1514 1514 1514 1514 1514 1514 1513 1513 1512 1512 1511 1510 1510 1509 1508 1507 1505 1504 1503 1502 1502 1501 1500 1499 1498 1497 1496 1495 1494 1493 1492 1491 1490 1489 1488 1487 1486 1485 1484 1483 1481 1481 1480 1479 1478 1477 1476 1475 1474 1473 1473 1472 1471 1471 1470 1470 1469 1468 1468 1468 1467 1466 1466 1465 1465 1465 1465 1465 1465 1465 1466 1466 1466 1466 1466 1466 1467 1467 1467
1515 1515 1514 1514 1514 1514 1514 1515 1515 1514 1514 1513 1513 1513 1512 1512 1511 1510 1509 1508 1508 1506 1505 1503 1503 1502 1501 1500 1500 1499 1498 1497 1495 1494 1494 1493 1492 1490 1489 1488 1487 1486 1485 1484 1483 1481 1480 1479 1478 1477 1476 1475 1474 1473 1472 1471 1471 1470 1469 1469 1468 1467 1467 1466 1466 1465 1464 1464 1463 1463 1463 1462 1462 1462 1462 1463 1463 1464 1464 1464 1464 1464 1464 1464 1465
1516 1515 1515 1515 1515 1515 1515 1515 1515 1515 1514 1514 1513 1513 1512 1511 1511 1510 1509 1508 1507 1506 1504 1503 1503 1502 1501 1500 1499 1498 1497 1496 1494 1494 1494 1493 1491 1490 1489 1488 1486 1485 1485 1484 1483 1481 1479 1478 1477 1476 1475 1473 1472 1471 1470 1469 1468 1468 1467 1466 1466 1465 1464 1463 1463 1463 1462 1461 1461 1460 1460 1460 1460 1459 1460 1460 1461 1461 1461 1462 1462 1462 1462 1462 1462
1516 1516 1516 1516 1516 1516 1516 1515 1515 1514 1514 1514 1513 1513 1512 1511 1511 1510 1509 1508 1507 1505 1503 1503 1502 1501 1500 1499 1497 1496 1495 1495 1494 1493 1493 1492 1491 1489 1488 1487 1486 1485 1484 1484 1482 1481 1479 1478 1476 1475 1474 1473 1471 1469 1467 1467 1466 1465 1465 1464 1463 1462 1461 1461 1461 1460 1459 1459 1458 1458 1458 1458 1457 1457 1457 1458 1458 1458 1459 1459 1459 1459 1459 1460 1460
1517 1516 1516 1516 1516 1516 1516 1515 1515 1515 1514 1514 1514 1513 1512 1511 1511 1510 1509 1508 1507 1505 1504 1502 1501 1500 1499 1497 1496 1495 1494 1494 1494 1493 1492 1491 1490 1489 1488 1487 1486 1485 1484 1482 1481 1480 1478 1476 1475 1473 1472 1472 1470 1468 1466 1465 1464 1464 1463 1461 1460 1459 1459 1459 1459 1457 1456 1456 1455 1455 1455 1455 1455 1455 1455 1455 1456 1456 1457 1457 1457 1457 1457 1457 1457
1517 1517 1517 1517 1517 1517 1516 1516 1516 1515 1515 1514 1514 1513 1512 1511 1511 1510 1509 1508 1507 1505 1504 1503 1501 1500 1498 1496 1495 1495 1494 1493 1493 1492 1491 1489 1489 1488 1487 1486 1485 1484 1482 1480 1479 1478 1476 1475 1474 1472 1470 1470 1468 1466 1465 1463 1463 1462 1461 1459 1458 1457 1457 1457 1456 1455 1453 1452 1452 1452 1452 1452 1452 1452 1453 1453 1453 1454 1454 1454 1455 1455 1455 1455 1455
1518 1518 1517 1517 1517 1517 1517 1517 1517 1516 1515 1514 1514 1513 1512 1511 1510 1510 1509 1508 1507 1506 1504 1503 1501 1499 1497 1496 1495 1494 1494 1492 1491 1490 1490 1489 1488 1487 1486 1485 1484 1483 1480 1478 1478 1476 1475 1473 1472 1470 1469 1468 1466 1465 1464 1462 1461 1460 1459 1457 1456 1456 1455 1455 1453 1451 1450 1450 1449 1449 1449 1449 1449 1450 1450 1450 1451 1451 1451 1452 1452 1452 1452 1452 1452
1518 1518 1518 1518 1518 1518 1518 1518 1517 1516 1515 1515 1514 1513 1512 1511 1510 1510 1509 1508 1507 1506 1504 1503 1501 1499 1497 1496 1494 1493 1493 1492 1491 1490 1489 1488 1487 1486 1484 1483 1482 1480 1478 1477 1476 1475 1474 1472 1470 1469 1467 1466 1465 1463 1462 1461 1459 1458 1457 1456 1455 1454 1453 1451 1449 1449 1448 1448 1448 1447 1447 1446 1447 1447 1448 1448 1448 1449 1449 1449 1449 1450 1450 1450 1450
1519 1518 1518 1519 1518 1518 1518 1518 1517 1516 1515 1515 1514 1513 1512 1511 1510 1510 1509 1508 1507 1506 1504 1502 1501 1498 1496 1495 1494 1493 1492 1491 1490 1489 1488 1488 1486 1485 1483 1482 1481 1478 1477 1476 1475 1474 1472 1470 1468 1467 1465 1464 1463 1461 1460 1458 1457 1456 1455 1454 1453 1452 1450 1448 1447 1447 1447 1446 1446 1445 1445 1444 1444 1445 1445 1445 1446 1446 1446 1446 1447 1447 1447 1447 1447
1519 1519 1519 1519 1518 1518 1517 1517 1516 1516 1515 1515 1514 1513 1512 1511 1510 1509 1509 1507 1506 1505 1504 1502 1500 1498 1496 1495 1494 1493 1492 1490 1489 1488 1487 1487 1485 1484 1482 1482 1480 1477 1476 1475 1473 1473 1471 1469 1467 1465 1463 1462 1460 1459 1457 1456 1455 1454 1453 1452 1451 1449 1448 1447 1446 1446 1445 1445 1444 1444 1443 1443 1443 1443 1443 1443 1443 1443 1444 1444 1444 1444 1444 1444 1445
1519 1519 1519 1519 1518 1518 1517 1516 1516 1515 1515 1514 1514 1513 1512 1511 1510 1509 1508 1507 1505 1504 1503 1501 1499 1498 1496 1494 1493 1492 1491 1489 1488 1487 1486 1485 1484 1482 1481 1480 1479 1477 1475 1474 1472 1471 1469 1467 1465 1463 1461 1460 1458 1456 1455 1455 1453 1452 1451 1450 1448 1447 1446 1445 1444 1444 1443 1443 1442 1442 1441 1441 1441 1441 1441 1441 1441 1441 1441 1442 1441 1441 1441 1442 1442
1520 1520 1519 1519 1518 1518 1517 1516 1515 1515 1515 1514 1513 1513 1512 1511 1510 1509 1508 1506 1505 1504 1502 1501 1499 1497 1496 1494 1493 1491 1490 1488 1487 1485 1484 1484 1483 1481 1480 1478 1478 1476 1474 1472 1471 1469 1467 1465 1463 1461 1459 1458 1456 1455 1454 1453 1452 1451 1450 1448 1446 1445 1444 1443 1442 1441 1441 1440 1440 1440 1440 1440 1439 1439 1438 1438 1438 1439 1439 1439 1439 1439 1439 1439 1439
1520 1520 1519 1519 1518 1517 1516 1516 1515 1515 1514 1514 1513 1512 1511 1510 1510 1509 1508 1506 1505 1503 1502 1500 1499 1497 1495 1493 1492 1490 1489 1487 1486 1485 1484 1483 1482 1480 1479 1477 1477 1475 1473 1471 1469 1467 1465 1463 1461 1460 1458 1456 1455 1453 1452 1451 1450 1449 1448 1446 1444 1443 1442 1441 1440 1439 1438 1438 1437 1437 1438 1437 1437 1436 1436 1435 1436 1436 1437 1437 1437 1437 1436 1436 1436
1520 1520 1519 1518 1518 1517 1516 1515 1515 1514 1514 1513 1512 1511 1510 1510 1509 1508 1507 1506 1504 1503 1501 1500 1498 1496 1494 1493 1491 1490 1488 1487 1485 1484 1483 1482 1481 1480 1478 1477 1475 1474 1472 1469 1467 1465 1463 1461 1460 1458 1456 1455 1453 1451 1450 1449 1448 1447 1445 1444 1442 1441 1440 1439 1438 1437 1436 1436 1435 1435 1435 1435 1434 1433 1433 1433 1434 1434 1434 1434 1434 1435 1434 1434 1434
1520 1519 1518 1518 1517 1516 1515 1515 1514 1514 1513 1513 1512 1511 1510 1509 1508 1508 1506 1505 1504 1503 1501 1499 1498 1496 1494 1492 1491 1489 1488 1486 1485 1484 1483 1482 1481 1479 1477 1476 1474 1472 1470 1468 1466 1464 1462 1460 1458 1457 1455 1453 1451 1449 1448 1446 1445 1444 1443 1441 1439 1439 1438 1437 1435 1435 1434 1434 1433 1433 1432 1432 1431 1431 1431 1431 1431 1431 1431 1432 1432 1432 1432 1431 1432
1519 1518 1518 1517 1516 1516 1515 1514 1513 1513 1513 1513 1512 1510 1510 1509 1508 1507 1506 1505 1504 1502 1501 1499 1497 1495 1493 1492 1490 1489 1488 1486 1485 1484 1483 1481 1480 1478 1477 1475 1473 1471 1469 1467 1465 1463 1461 1459 1457 1455 1453 1451 1449 1447 1445 1444 1442 1441 1440 1438 1437 1436 1435 1434 1433 1432 1432 1431 1431 1431 1430 1429 1429 1429 1429 1428 1428 1428 1429 1429 1429 1430 1430 1429 1430
1519 1518 1517 1517 1516 1515 1514 1513 1513 1513 1512 1512 1511 1510 1509 1509 1508 1507 1506 1505 1503 1502 1501 1499 1497 1495 1493 1492 1490 1489 1488 1487 1485 1484 1482 1481 1479 1477 1476 1474 1472 1470 1468 1467 1465 1463 1461 1459 1457 1454 1452 1449 1447 1445 1444 1442 1440 1439 1438 1436 1435 1434 1433 1431 1430 1430 1429 1429 1428 1428 1428 1427 1427 1426 1426 1426 1426 1426 1426 1427 1427 1428 1427 1427 1427
1519 1518 1517 1516 1515 1514 1513 1513 1512 1512 1512 1512 1511 1510 1509 1508 1507 1506 1506 1505 1504 1502 1501 1499 1497 1495 1493 1491 1490 1489 1488 1487 1485 1483 1482 1480 1478 1477 1475 1473 1471 1469 1468 1466 1464 1462 1460 1458 1455 1453 1450 1448 1446 1444 1442 1441 1439 1437 1436 1434 1433 1432 1430 1429 1428 1427 1427 1426 1426 1426 1425 1425 1424 1424 1424 1423 1423 1423 1423 1424 1425 1425 1425 1425 1425
1519 1518 1517 1515 1515 1514 1513 1513 1512 1512 1511 1511 1510 1509 1509 1508 1507 1506 1506 1505 1503 1502 1500 1499 1497 1495 1493 1492 1490 1489 1488 1486 1484 1483 1481 1479 1478 1476 1474 1473 1471 1469 1467 1465 1463 1461 1458 1456 1454 1451 1449 1447 1445 1443 1441 1439 1437 1436 1434 1433 1431 1430 1428 1427 1426 1425 1424 1424 1423 1423 1423 1422 1422 1421 1421 1421 1421 1421 1421 1421 1422 1422 1422 1423 1423
1519 1517 1516 1515 1515 1514 1513 1512 1512 1512 1511 1511 1510 1509 1509 1508 1507 1507 1506 1505 1503 1502 1500 1498 1497 1495 1493 1492 1490 1489 1487 1485 1484 1482 1481 1479 1478 1476 1474 1473 1471 1469 1466 1464 1462 1460 1458 1455 1453 1450 1448 1446 1444 1442 1440 1438 1436 1434 1432 1431 1429 1428 1427 1425 1424 1423 1422 1421 1421 1420 1420 1420 1419 1419 1418 1418 1418 1418 1418 1419 1419 1420 1420 1420 1421
1518 1517 1516 1516 1515 1514 1513 1513 1512 1512 1512 1511 1511 1510 1509 1509 1508 1507 1506 1505 1504 1502 1500 1498 1497 1495 1493 1491 1490 1488 1487 1485 1484 1482 1481 1479 1478 1476 1475 1473 1470 1468 1466 1464 1461 1459 1457 1454 1452 1449 1447 1445 1443 1440 1438 1436 1434 1432 1430 1429 1427 1426 1425 1423 1422 1421 1420 1419 1418 1418 1417 1417 1416 1416 1416 1416 1416 1415 1416 1416 1416 1417 1418 1418 1418
1518 1517 1517 1516 1515 1514 1513 1513 1512 1512 1512 1512 1511 1511 1510 1509 1508 1507 1506 1505 1504 1502 1500 1499 1497 1495 1493 1491 1490 1489 1487 1485 1484 1482 1481 1480 1478 1476 1474 1472 1470 1468 1466 1463 1461 1459 1457 1454 1451 1449 1446 1444 1442 1439 1437 1435 1432 1430 1428 1426 1425 1424 1423 1421 1420 1419 1418 1417 1416 1415 1415 1414 1413 1413 1413 1413 1413 1413 1413 1413 1414 1415 1415 1415 1415
1519 1518 1517 1516 1515 1514 1514 1513 1513 1513 1512 1512 1512 1511 1510 1510 1509 1508 1507 1505 1504 1502 1501 1499 1497 1495 1493 1492 1490 1489 1487 1486 1484 1483 1481 1480 1478 1477 1475 1473 1470 1467 1465 1463 1461 1459 1456 1453 1450 1447 1445 1443 1441 1438 1436 1434 1431 1428 1426 1424 1423 1422 1421 1420 1419 1418 1417 1415 1414 1413 1413 1412 1411 1410 1410 1409 1409 1410 1410 1410 1411 1412 1412 1413 1413
1519 1519 1518 1517 1516 1515 1515 1514 1514 1513 1513 1513 1512 1512 1511 1510 1509 1508 1507 1506 1504 1503 1501 1499 1498 1496 1494 1492 1491 1490 1488 1486 1485 1483 1482 1480 1479 1477 1475 1472 1470 1468 1465 1463 1461 1459 1456 1453 1449 1447 1444 1442 1440 1438 1435 1432 1430 1428 1425 1424 1422 1421 1420 1419 1418 1417 1415 1414 1413 1412 1411 1410 1409 1408 1407 1407 1406 1406 1407 1407 1408 1408 1409 1410 1410
1520 1519 1518 1518 1517 1516 1515 1515 1514 1514 1513 1513 1513 1512 1511 1510 1509 1508 1507 1506 1504 1503 1501 1500 1498 1496 1494 1493 1492 1490 1489 1487 1486 1484 1482 1481 1479 1477 1475 1472 1470 1468 1465 1463 1460 1458 1455 1452 1449 1446 1444 1441 1439 1436 1434 1431 1429 1427 1425 1424 1423 1421 1420 1419 1417 1416 1414 1413 1411 1410 1409 1408 1407 1406 1405 1405 1404 1404 1404 1404 1404 1405 1406 1407 1407
1521 1520 1519 1518 1517 1516 1516 1515 1515 1514 1514 1514 1513 1512 1511 1511 1510 1509 1507 1506 1505 1503 1502 1500 1498 1497 1495 1494 1492 1491 1489 1488 1486 1485 1483 1482 1480 1477 1475 1472 1470 1468 1465 1463 1460 1457 1454 1451 1448 1446 1443 1440 1437 1435 1432 1430 1428 1426 1425 1424 1423 1422 1420 1418 1416 1414 1413 1411 1410 1408 1407 1406 1405 1404 1403 1403 1402 1402 1402 1402 1402 1403 1403 1404 1405
1521 1521 1520 1519 1518 1517 1517 1516 1515 1515 1514 1514 1513 1512 1512 1511 1510 1509 1507 1506 1505 1504 1502 1500 1498 1497 1496 1494 1493 1491 1490 1489 1487 1486 1484 1482 1480 1477 1475 1472 1470 1468 1465 1462 1459 1456 1452 1449 1447 1445 1443 1440 1437 1434 1431 1429 1427 1426 1426 1425 1424 1422 1420 1417 1415 1413 1411 1409 1408 1406 1405 1404 1402 1401 1401 1400 1400 1400 1400 1400 1400 1400 1401 1401 1402
1522 1521 1520 1520 1519 1518 1517 1516 1516 1515 1514 1514 1513 1512 1512 1511 1510 1509 1508 1507 1505 1504 1502 1501 1499 1497 1496 1495 1493 1492 1491 1489 1488 1486 1484 1482 1480 1478 1475 1473 1470 1468 1465 1462 1458 1455 1451 1449 1447 1444 1442 1439 1437 1434 1431 1429 1428 1427 1427 1426 1424 1422 1419 1416 1414 1412 1409 1407 1405 1404 1402 1401 1400 1399 1398 1398 1397 1397 1397 1398 1398 1398 1399 1399 1399
1523 1522 1521 1520 1519 1518 1518 1517 1516 1515 1514 1514 1513 1512 1512 1511 1510 1509 1508 1507 1506 1504 1503 1501 1499 1498 1497 1496 1494 1493 1491 1490 1488 1487 1485 1483 1480 1478 1475 1473 1471 1468 1465 1461 1458 1454 1451 1449 1447 1445 1442 1439 1437 1434 1432 1430 1429 1428 1428 1426 1425 1422 1419 1416 1413 1410 1408 1406 1403 1401 1400 1399 1397 1396 1396 1395 1395 1395 1395 1395 1396 1396 1397 1397 1397
1523 1522 1521 1521 1520 1519 1518 1517 1516 1515 1515 1514 1514 1512 1512 1511 1510 1509 1508 1507 1506 1504 1503 1501 1500 1499 1498 1496 1495 1494 1492 1491 1489 1487 1485 1483 1481 1478 1476 1474 1471 1468 1464 1461 1457 1454 1451 1449 1447 1445 1442 1439 1437 1434 1432 1431 1430 1429 1429 1427 1425 1423 1419 1415 1412 1410 1407 1405 1402 1400 1398 1397 1396 1394 1394 1393 1392 1392 1392 1392 1393 1394 1394 1394 1395
1524 1523 1522 1521 1520 1519 1518 1517 1516 1516 1515 1515 1514 1513 1512 1511 1510 1509 1509 1507 1506 1504 1503 1502 1501 1500 1498 1497 1496 1495 1493 1492 1490 1488 1486 1484 1481 1479 1477 1474 1471 1467 1464 1461 1457 1455 1452 1450 1447 1445 1443 1440 1437 1435 1433 1432 1431 1431 1429 1428 1426 1423 1420 1416 1413 1410 1407 1404 1402 1400 1399 1397 1395 1394 1392 1391 1390 1390 1390 1390 1391 1391 1391 1392 1392
1525 1523 1522 1521 1520 1519 1519 1518 1517 1516 1516 1515 1514 1513 1512 1512 1511 1510 1509 1508 1506 1504 1503 1502 1501 1500 1499 1498 1497 1496 1494 1492 1490 1488 1486 1484 1482 1480 1477 1474 1470 1467 1464 1461 1457 1455 1453 1450 1448 1445 1443 1441 1438 1436 1435 1434 1433 1432 1430 1429 1427 1424 1421 1417 1414 1410 1407 1405 1403 1401 1399 1397 1395 1393 1392 1390 1389 1388 1388 1389 1389 1389 1389 1390 1390
1525 1524 1523 1522 1521 1520 1519 1518 1517 1517 1516 1515 1514 1514 1513 1512 1511 1510 1509 1507 1506 1505 1504 1503 1502 1501 1500 1499 1498 1497 1495 1493 1491 1489 1487 1485 1483 1480 1477 1474 1471 1468 1464 1461 1458 1455 1453 1451 1448 1446 1444 1442 1440 1438 1437 1436 1435 1433 1432 1430 1428 1426 1422 1419 1415 1411 1408 1406 1404 1401 1399 1397 1395 1393 1391 1390 1389 1388 1387 1387 1387 1387 1388 1388 1389
1526 1524 1523 1522 1521 1520 1519 1519 1518 1517 1517 1516 1515 1514 1513 1512 1511 1510 1508 1507 1506 1505 1504 1503 1502 1501 1501 1500 1499 1497 1496 1494 1492 1490 1488 1486 1483 1480 1477 1474 1471 1468 1465 1462 1459 1456 1454 1452 1449 1447 1445 1443 1441 1439 1438 1437 1436 1434 1433 1431 1430 1427 1425 1421 1417 1414 1410 1408 1405 1402 1400 1398 1396 1394 1392 1390 1389 1388 1387 1387 1386 1386 1387 1387 1387
1526 1525 1524 1522 1522 1521 1520 1519 1518 1518 1517 1516 1515 1514 1513 1512 1511 1510 1509 1508 1507 1506 1505 1504 1503 1502 1502 1501 1500 1498 1496 1494 1492 1491 1489 1487 1484 1481 1478 1475 1472 1469 1466 1463 1460 1457 1455 1453 1450 1448 1446 1444 1443 1441 1440 1438 1436 1435 1434 1432 1430 1429 1427 1423 1419 1416 1413 1410 1407 1405 1402 1400 1398 1395 1392 1391 1390 1388 1388 1387 1386 1386 1386 1386 1386
1526 1525 1524 1523 1522 1521 1520 1520 1519 1518 1517 1516 1516 1514 1513 1512 1511 1511 1510 1509 1507 1506 1506 1505 1504 1503 1503 1502 1501 1499 1497 1495 1493 1491 1490 1487 1485 1482 1479 1476 1473 1469 1466 1463 1460 1458 1456 1454 1452 1450 1448 1446 1445 1443 1441 1439 1438 1436 1434 1432 1431 1429 1428 1425 1422 1420 1417 1414 1411 1408 1405 1402 1400 1397 1394 1392 1391 1389 1388 1388 1387 1386 1386 1385 1385
1527 1526 1524 1523 1523 1522 1521 1520 1520 1518 1518 1517 1516 1515 1514 1513 1512 1511 1511 1509 1508 1507 1507 1506 1505 1504 1504 1503 1501 1500 1498 1496 1494 1492 1491 1488 1486 1483 1480 1477 1474 1470 1467 1464 1461 1458 1456 1455 1453 1451 1449 1448 1446 1444 1443 1442 1440 1437 1435 1433 1432 1430 1429 1428 1427 1424 1420 1417 1414 1411 1409 1405 1402 1399 1396 1394 1392 1390 1389 1388 1388 1386 1386 1386 1385
1527 1526 1525 1524 1523 1522 1521 1520 1520 1519 1518 1518 1517 1516 1515 1514 1513 1512 1511 1510 1509 1508 1507 1506 1505 1504 1504 1503 1502 1500 1499 1497 1495 1494 1492 1490 1487 1484 1481 1478 1475 1472 1468 1465 1463 1460 1458 1456 1454 1453 1451 1449 1448 1446 1445 1444 1442 1440 1438 1436 1434 1433 1433 1432 1430 1427 1424 1421 1418 1415 1412 1410 1406 1403 1400 1398 1395 1392 1389 1388 1388 1387 1387 1387 1386
1527 1526 1525 1524 1523 1523 1522 1521 1521 1520 1519 1519 1518 1517 1516 1515 1514 1513 1511 1510 1509 1508 1507 1506 1505 1505 1505 1504 1503 1501 1500 1498 1496 1495 1493 1491 1488 1486 1483 1480 1477 1473 1470 1467 1465 1462 1459 1457 1456 1454 1452 1451 1450 1448 1447 1445 1444 1442 1441 1439 1438 1437 1437 1434 1432 1430 1428 1424 1421 1418 1415 1414 1411 1407 1404 1402 1399 1396 1392 1389 1389 1389 1389 1389 1389
1528 1527 1525 1525 1524 1523 1522 1522 1521 1521 1520 1519 1519 1518 1517 1515 1514 1513 1511 1510 1509 1508 1508 1507 1506 1506 1506 1505 1504 1502 1501 1499 1497 1496 1494 1492 1490 1487 1485 1483 1479 1476 1473 1470 1466 1464 1462 1460 1458 1456 1454 1453 1451 1449 1448 1447 1445 1444 1443 1442 1441 1440 1439 1437 1434 1433 1431 1427 1424 1422 1419 1418 1416 1411 1408 1407 1404 1400 1395 1392 1392 1392 1392 1391 1392
1528 1527 1526 1525 1525 1524 1523 1522 1522 1521 1521 1520 1519 1519 1517 1516 1515 1514 1512 1511 1510 1509 1509 1508 1507 1507 1507 1506 1505 1503 1502 1500 1498 1497 1495 1494 1491 1489 1488 1485 1482 1478 1475 1472 1469 1467 1465 1463 1461 1458 1456 1454 1452 1451 1450 1448 1447 1447 1446 1445 1443 1442 1440 1439 1437 1436 1434 1431 1428 1425 1423 1422 1419 1416 1413 1412 1409 1405 1400 1397 1396 1396 1395 1395 1395
1528 1527 1527 1526 1525 1524 1523 1523 1523 1522 1521 1521 1520 1519 1518 1517 1516 1514 1513 1511 1511 1510 1509 1508 1508 1508 1507 1507 1505 1504 1503 1501 1499 1498 1496 1495 1493 1491 1490 1487 1484 1481 1479 1476 1473 1471 1468 1465 1463 1461 1459 1457 1455 1453 1452 1451 1450 1450 1449 1447 1446 1444 1442 1441 1440 1438 1436 1434 1432 1428 1426 1424 1422 1419 1417 1416 1413 1410 1406 1403 1402 1401 1400 1399 1400
1528 1528 1527 1526 1526 1525 1524 1523 1523 1523 1522 1521 1521 1520 1519 1518 1517 1515 1514 1512 1511 1510 1509 1509 1509 1508 1508 1507 1506 1505 1503 1502 1500 1499 1498 1496 1495 1493 1492 1490 1487 1485 1482 1480 1477 1474 1471 1468 1466 1464 1461 1459 1458 1456 1455 1454 1453 1452 1451 1449 1447 1445 1444 1443 1442 1441 1439 1437 1435 1433 1430 1427 1425 1424 1422 1420 1418 1415 1412 1410 1407 1406 1406 1405 1405
1528 1528 1527 1526 1526 1525 1524 1524 1524 1523 1522 1522 1521 1521 1520 1518 1517 1516 1514 1513 1512 1511 1510 1509 1509 1509 1508 1507 1507 1505 1504 1503 1501 1500 1499 1498 1497 1495 1493 1492 1490 1488 1485 1483 1480 1477 1475 1472 1470 1467 1464 1462 1461 1460 1458 1457 1456 1454 1453 1451 1449 1448 1447 1446 1445 1444 1442 1440 1439 1437 1435 1432 1430 1429 1427 1425 1422 1420 1418 1415 1412 1412 1412 1411 1411